Showing default

FLOCK 1C 6, 40036

Orbit data source: Space-Track

FLOCK 1C 6, 40036 is a payload satellite owned by Planet Labs (US) in LEO that was launched on Thu, 19 Jun 2014 UTC via a DNEPR launch vehicle from the Orenburg, Russia (OREN). Payloads include a variety of satellites, spacecraft, and rockets equipped with specific instruments for various scientific and technological missions. These include communications satellites like Starlink; space stations such as the ISS; scientific satellites like the Hubble; Earth observation satellites from companies like Planet Labs, Umbra, and HawkEye 360; GPS; miniature CubeSats for education and research; and military/defense satellites.

Loading next visibility...
FLOCK 1C 6 details
Identifier
40036, 2014-033AC
Orbit
LEO
Last TLE update11 hours ago
Origin
Flag of USPlanet Labs (US)
ManufacturerPlanet Labs
MissionNon-operational Commercial Imaging
Bus & MotorCUBESAT 3U, Unknown motor
Mass4.25 kg wet, 4.25 kg dry
Launch date (UTC)
2014-06-19 (10 years ago)
Launch vehicle
DNEPR
Launch site
Orenburg, Russia (OREN)
Object type
Payload
Rocket body
Debris
Shape & HBRBox + 2 Pan, 0.3 m
Radar Cross Section0.108 m², Small (<0.1 m²)

Expand to show TLE details & history

TLE from 11 hours ago
0 FLOCK 1C 6
1 40036U 14033AC  24347.92252081  .00071007  00000-0  16205-2 0  9994
2 40036  98.0879 350.1498 0002116 115.4009 244.7456 15.42627777570985
Epoch: 2024-12-12T22:08Z
Definitive object data (Epoch: 2024-12-12T22:08:25.797Z)
Latitude-0.00001°
Longitude-64.05359°
Altitude442.073 km
Speed7.646 km/s
True Right ascension23h 20m 35s
True Declination0° 00' 00"
Sunlit
Object was in daylight at TLE epoch
Visualization TLE readout
Latitude1.47548°
Longitude-63.75829°
Altitude441.641 km
Speed7.647 km/s
Apparent Right ascension21h 47m 32s
Apparent Declination-20° 41' 02"
Sunlit
Object is in daylight
Visualization observer readout
Local Sidereal Time07:32:21
Azimuth293.654° NW
Elevation-55.379°
Doppler factor1
Orbital elements
Apogee altitude436.766 km
Perigee altitude433.882 km
Semi-major axis6,813.461 km
Eccentricity0.0002116
Inclination98.0879°
RAAN350.1498°
Arg. of periapsis115.4009°
True anomaly244.72367°
Mean anomaly244.7456°
Eccentric anomaly244.73464°
Mean motion3.85915 °/min
BSTAR0.0016205
Orbital period93.28 mins
Loading maneuver chart data...
Loading historical data...
Loading historical data...
Loading historical data...
Loading historical data...
Loading historical data...
Loading historical data...
Loading historical data...

FLOCK 1C 6 Visibility forecast

Observer location: undefined°, undefined

Span
Click to sort rows by Start time (UTC) header in descending order
Start Az.
Max El. time (UTC)
Max El. Az.
Max El.
End time (UTC)
End Az.
4 mins2024-12-13 12:43:38.992Z48.895° ENE2024-12-13 12:45:38.992Z100.653° ESE24.142°2024-12-13 12:47:38.992Z149.227° SSE
4 mins2024-12-14 00:44:38.992Z197.763° SSW2024-12-14 00:46:38.992Z267.859° W33.857°2024-12-14 00:48:38.992Z325.333° NNW
|